Location: Cossonay
(46.5833°N, 6.4167°E)
Time: 04:06:28
(UTC+00:00)

STARLINK-1350 - Pass Details

Date: 07 June 2020
Orbit: 548 x 551 km, 53.0° (Epoch: 04 July)

Event Time Altitude Azimuth Distance (km) Brightness Sun altitude
Rises 02:22:39 0° 299° (WNW) 2,716 7.1 -10.8°
Reaches altitude 10° 02:24:56 10° 303° (WNW) 1,820 6.2 -10.5°
Maximum altitude 02:29:01 59° 23° (NNE) 637 4.3 -10.1°
Drops below altitude 10° 02:33:05 10° 104° (ESE) 1,813 6.6 -9.6°
Sets 02:35:20 0° 108° (ESE) 2,703 7.5 -9.4°
